Weather in Vaslui

Romania     46°39′00″N   27°43′27″E
temp.,
°C
wind,
m/s
gust,
m/s
humid.,
%
clouds,
%
prec.,
mm/h
press.,
hPa
HPBL,
m
18 april, sun
sun1800:00+8ene225692 0.0 101832
03:00+6e117092 0.0 101810
06:00+5nne117671 0.0 101810
09:00+9ne1163100 0.0 1018334
12:00+12e334995 0.0 10181291
15:00+14ese334295 0.0 10161959
18:00+13s2352100 0.1 10161433
21:00+8sw1286100 1.9 1018152
19 april, mon
mon1900:00+8wnw1186100 0.4 1018123
03:00+8n1285100 0.6 101860
06:00+8wnw0086100 0.1 101723
09:00+9n1280100 0.3 1017348
12:00+9ne1177100 0.2 1016454
15:00+11n1268100 0.3 1015770
18:00+12nne2366100 0.1 1013859
21:00+9n3584100 0.5 1013148
20 april, tue
tue2000:00+9nnw4887100 0.2 1011248
03:00+9n4987100 0.5 1009434
06:00+8n51084100 0.3 1008396
09:00+8n61079100 0.3 1009490
12:00+12n7954100 0.0 10091680
15:00+12nnw81049100 0.1 10091935
18:00+13nw5853100 0.0 10101602
21:00+9w2263100 0.0 101210
21 april, wed
wed2100:00+7w11695 0.0 101310
03:00+6wsw227529 0.0 101410
06:00+6w118483 0.0 101410
09:00+10wsw126898 0.0 1015312
12:00+13ssw115687 0.1 10151095
15:00+15s334991 0.6 10141670
18:00+15w114870 0.3 10141037
21:00+10s336859 0.3 101636
22 april, thu
thu2200:00+9s227066 0.0 101614
03:00+8s117638 0.0 101610
06:00+7wnw117813 0.0 101710
09:00+12wnw12635 0.0 1018323
12:00+16w22460 0.0 10181463
15:00+18sw563945 0.0 10162479
18:00+17sw47443 0.0 10161675
21:00+13ssw496110 0.0 1016156